Regional Weather Roundup
Issued by NWS

Home | Current Version | Previous Version | Text Only | Print | Product List | Glossary Off
Versions: 1 2 3 4 5 6 7 8 9 10 11 12 13 14 15 16 17 18 19 20 21 22 23 24 25 26 27 28 29 30 31 32 33 34 35 36 37 38 39 40 41 42 43 44 45 46 47 48 49 50

000
ASUS43 KBIS 161359
RWRND

NORTH DAKOTA REGIONAL WEATHER ROUNDUP
NATIONAL WEATHER SERVICE BISMARCK ND
900 AM CDT TUE SEP 16 2014

NOTE: "FAIR" INDICATES FEW OR NO CLOUDS BELOW 12,000 FEET WITH NO
SIGNIFICANT WEATHER AND/OR OBSTRUCTIONS TO VISIBILITY.


NDZ001>003-009>011-017-161500-
NORTHWEST NORTH DAKOTA

CITY           SKY/WX    TMP DP  RH WIND       PRES   REMARKS
WILLISTON      SUNNY     40  34  79 CALM      30.03R HAZE
MINOT          SUNNY     51  41  68 SW8       30.00F
$$

NDZ018>021-031>035-040>046-161500-
SOUTHWEST NORTH DAKOTA

CITY           SKY/WX    TMP DP  RH WIND       PRES   REMARKS
BISMARCK       SUNNY     47  41  80 E3        30.04F
GARRISON         N/A     50  45  83 SE3       30.02S
HETTINGER ARPT SUNNY     42  38  85 CALM      30.03F
$$

NDZ004>008-012>016-024-026-027-054-161500-
NORTHEAST NORTH DAKOTA

CITY           SKY/WX    TMP DP  RH WIND       PRES   REMARKS
GRAND FORKS    MOSUNNY   50  42  74 S5        30.03F
DEVILS LAKE    SUNNY     52  39  62 W8        30.02S
$$

NDZ022-023-025-028>030-036>039-047>053-161500-
SOUTHEAST NORTH DAKOTA

CITY           SKY/WX    TMP DP  RH WIND       PRES   REMARKS
FARGO          SUNNY     51  39  63 S12       30.08F
$$



USA.gov is the U.S. government's official web portal to all federal, state and local government web resources and services.